This is the latest recevied weather packets stored in our database for station/object PA0HHN. If no packets are shown the sender has not sent any weather packets the latest 10 day(s).
| Time | Temp. | Humidity | Pressure | Rain* | Wind** | Luminosity | Snow |
|---|---|---|---|---|---|---|---|
| 1777694402 | 11.11° C | 68% | 1012.9 hPa | - | - | - | - |
| 1777693502 | 11.11° C | 68% | 1013.1 hPa | - | - | - | - |
| 1777690802 | 11.11° C | 69% | 1013.4 hPa | - | - | - | - |
| 1777689903 | 11.11° C | 69% | 1013.5 hPa | - | - | - | - |
| 1777689000 | 11.11° C | 70% | 1013.6 hPa | - | - | - | - |
| 1777688101 | 11.11° C | 69% | 1013.6 hPa | - | - | - | - |
| 1777687202 | 12.22° C | 69% | 1013.4 hPa | - | - | - | - |
| 1777680001 | 11.11° C | 73% | 1015.1 hPa | - | - | - | - |
| 1777679101 | 11.11° C | 73% | 1015 hPa | - | - | - | - |
| 1777671001 | 15° C | 60% | 1015.7 hPa | - | - | - | - |
| 1777670102 | 16.11° C | 57% | 1015.7 hPa | - | - | - | - |
| 1777669202 | 17.22° C | 53% | 1015.5 hPa | - | - | - | - |
| 1777668302 | 17.22° C | 53% | 1015.8 hPa | - | - | - | - |
| 1777667401 | 17.22° C | 54% | 1015.9 hPa | - | - | - | - |
| 1777666502 | 17.22° C | 52% | 1015.7 hPa | - | - | - | - |
| 1777665601 | 17.78° C | 52% | 1015.8 hPa | - | - | - | - |
| 1777655701 | 23.89° C | 35% | 1015.9 hPa | - | - | - | - |
| 1777651201 | 25° C | 32% | 1016.5 hPa | - | - | - | - |
| 1777650302 | 25° C | 32% | 1016.6 hPa | - | - | - | - |
| 1777649401 | 25° C | 32% | 1016.8 hPa | - | - | - | - |
| 1777648502 | 23.89° C | 33% | 1017.1 hPa | - | - | - | - |
| 1777644903 | 23.89° C | 34% | 1017.7 hPa | - | - | - | - |
| 1777644003 | 23.89° C | 34% | 1017.9 hPa | - | - | - | - |
| 1777643104 | 23.89° C | 33% | 1018 hPa | - | - | - | - |
| 1777642201 | 23.89° C | 34% | 1018.2 hPa | - | - | - | - |
* Rain since midnight (hover to see other rain measurements)
** Current wind speed in m/s (hover to see current wind gust speed)